TimeEST,TemperatureF,Dew PointF,Humidity,Sea Level PressureIn,VisibilityMPH,Wind Direction,Wind SpeedMPH,Gust SpeedMPH,PrecipitationIn,Events,Conditions,WindDirDegrees,DateUTC
12:51 AM,35.1,23.0,61,30.17,10.0,South,12.7,-,N/A,,Clear,170,2013-12-01 05:51:00
1:51 AM,35.1,24.1,64,30.15,10.0,SSW,10.4,20.7,N/A,,Clear,210,2013-12-01 06:51:00
2:51 AM,36.0,24.1,62,30.14,10.0,SW,9.2,-,N/A,,Clear,220,2013-12-01 07:51:00
3:51 AM,35.1,24.1,64,30.12,10.0,South,11.5,-,N/A,,Clear,170,2013-12-01 08:51:00
4:51 AM,34.0,24.1,67,30.10,10.0,South,8.1,-,N/A,,Mostly Cloudy,180,2013-12-01 09:51:00
5:51 AM,34.0,24.1,67,30.10,10.0,South,11.5,-,N/A,,Overcast,170,2013-12-01 10:51:00
6:51 AM,36.0,25.0,64,30.09,10.0,South,10.4,-,N/A,,Overcast,180,2013-12-01 11:51:00
7:51 AM,35.1,25.0,67,30.09,10.0,South,8.1,-,N/A,,Clear,180,2013-12-01 12:51:00
8:51 AM,36.0,25.0,64,30.08,10.0,South,8.1,-,N/A,,Partly Cloudy,170,2013-12-01 13:51:00
9:51 AM,37.0,25.0,62,30.07,10.0,South,9.2,-,N/A,,Overcast,180,2013-12-01 14:51:00
10:51 AM,39.0,26.1,60,30.07,10.0,South,8.1,-,N/A,,Overcast,190,2013-12-01 15:51:00
11:51 AM,39.0,26.1,60,30.05,10.0,South,6.9,-,N/A,,Overcast,190,2013-12-01 16:51:00
12:51 PM,39.0,27.0,62,30.04,10.0,SSW,8.1,-,N/A,,Overcast,200,2013-12-01 17:51:00
1:51 PM,39.9,27.0,60,30.01,10.0,South,8.1,-,N/A,,Overcast,190,2013-12-01 18:51:00
2:51 PM,39.0,27.0,62,30.01,10.0,SSW,5.8,-,N/A,,Overcast,210,2013-12-01 19:51:00
3:51 PM,39.0,27.0,62,30.01,10.0,SSW,5.8,-,N/A,,Overcast,200,2013-12-01 20:51:00
4:51 PM,39.0,28.0,65,30.00,10.0,South,4.6,-,0.00,,Overcast,180,2013-12-01 21:51:00
5:51 PM,39.0,28.0,65,30.00,10.0,Calm,Calm,-,N/A,,Overcast,0,2013-12-01 22:51:00
6:51 PM,37.9,28.0,68,30.01,10.0,South,5.8,-,N/A,,Overcast,190,2013-12-01 23:51:00
7:51 PM,37.9,28.0,68,30.01,10.0,SSW,5.8,-,N/A,,Overcast,210,2013-12-02 00:51:00
8:51 PM,37.9,28.0,68,29.99,10.0,SSW,6.9,-,N/A,,Overcast,210,2013-12-02 01:51:00
9:51 PM,37.9,28.0,68,29.99,10.0,SSW,5.8,-,N/A,,Overcast,200,2013-12-02 02:51:00
10:51 PM,37.9,28.0,68,29.98,10.0,SSW,3.5,-,N/A,,Overcast,210,2013-12-02 03:51:00
11:35 PM,37.4,28.4,70,29.96,10.0,SSW,5.8,-,N/A,,Overcast,210,2013-12-02 04:35:00
11:51 PM,37.9,28.0,68,29.98,10.0,SSW,5.8,-,N/A,,Overcast,200,2013-12-02 04:51:00